WANGEN Weather Reports


time (UTC)temp
C
wind
direction
speed
KPH
gust
KPH
rain 1hr
cm
rain 24hr
cm
rain mn
cm
humidity
%
barometer
mb
20260504220209 12 208 0.0 0.0 0.00 0.00 0.00 79 1010.4
20260504213209 12 208 0.0 0.0 0.00 0.00 0.00 76 1010.5
20260504210209 13 208 0.0 0.0 0.00 0.00 0.00 71 1010.5
20260504203209 14 208 0.0 0.0 0.00 0.00 0.00 66 1010.3
20260504200209 16 203 8.0 0.0 0.00 0.00 0.00 62 1010.1
20260504193209 17 96 0.0 0.0 0.00 0.00 0.00 57 1009.6
20260504190209 18 82 0.0 0.0 0.00 0.00 0.00 53 1009.6
20260504183209 18 80 3.2 0.0 0.00 0.00 0.00 50 1009.8
20260504180214 19 138 8.0 0.0 0.00 0.00 0.00 49 1010.0
20260504173209 19 277 6.4 0.0 0.00 0.00 0.00 50 1009.8
20260504170210 20 217 6.4 0.0 0.00 0.00 0.00 51 1009.7
20260504160210 22 207 14.5 0.0 0.00 0.00 0.00 52 1009.3
20260504150210 22 234 6.4 0.0 0.00 0.00 0.00 32 1009.0
20260504140209 22 236 9.7 0.0 0.00 0.00 0.00 33 1009.2
20260504130215 24 84 6.4 0.0 0.00 0.00 0.00 30 1009.7
20260504120210 23 298 9.7 0.0 0.00 0.00 0.00 36 1010.1
20260504110210 22 250 11.3 0.0 0.00 0.00 0.00 40 1010.6
20260504100212 21 36 6.4 0.0 0.00 0.00 0.00 41 1011.2
20260504080210 16 71 0.0 0.0 0.00 0.00 0.00 61 1012.4
20260504070212 14 98 3.2 0.0 0.00 0.00 0.00 68 1012.7
20260504060212 12 97 4.8 0.0 0.00 0.00 0.00 75 1012.6
20260504050210 10 52 3.2 0.0 0.00 0.00 0.00 84 1012.7
20260504043211 10 53 0.0 0.0 0.00 0.00 0.00 85 1012.7
20260504040211 10 53 0.0 0.0 0.00 0.00 0.00 85 1012.8
20260504033211 10 54 0.0 0.0 0.00 0.00 0.00 85 1012.8
20260504030212 11 50 0.0 0.0 0.00 0.00 0.00 82 1013.2
20260504023211 11 51 0.0 0.0 0.00 0.00 0.00 80 1013.2
20260504020212 12 53 0.0 0.0 0.00 0.00 0.00 79 1013.1
20260504013211 12 53 0.0 0.0 0.00 0.00 0.00 77 1013.0
20260504010211 12 52 0.0 0.0 0.00 0.00 0.00 77 1013.2
20260504003210 12 9 3.2 0.0 0.00 0.00 0.00 77 1013.5
20260504000208 12 238 0.0 0.0 0.00 0.00 0.00 78 1013.7
20260503233209 12 238 0.0 0.0 0.00 0.00 0.00 76 1014.0
20260503230209 13 238 0.0 0.0 0.00 0.00 0.00 73 1014.2
20260503223210 13 238 0.0 0.0 0.00 0.00 0.00 72 1014.2